Epoch 2020 May 31.0 TT = JDT 2459000.5 T 2020 June 18.82222 TT Rudenko q 0.9142590 (2000.0) P Q z +0.0022978 Peri. 329.65983 -0.68858810 +0.06104186 +/-0.0000006 Node 235.70556 -0.35183616 -0.89942922 e 0.9978992 Incl. 61.00133 -0.63408023 +0.43278282 From 922 observations 2018 Nov. 6-2020 Oct. 17, mean residual 0".6.
H = 14.0 G = 0.15 [ ,-231] ( 〜2019年10月31日) m1 = 7.0 + 5 logΔ + 20.0 log r(t + 10) [-231, 33] (2019年10月31日〜2020年 7月21日) m1 = 8.0 + 5 logΔ + 13.0 log r [ 33, ] (2020年 7月21日〜 )